GAP4542 RPLL-RPVE

Flight info

Callsign GAP4542
Flight time 0h 55m
Altitude 27000
Route VERDE2R VERDE W24 TAPER TAPER7A
Aircraft A320/M-V/N

Departure

Time 2026-04-25 13:38
Airport Ninoy Aquino International Airport (RPLL)

Arrival

Time 2026-04-25 14:34
Airport Godofredo P. Ramos Airport (RPVE)
Time Latitude Longitude Altitude Speed Heading
2026-04-25 12:48 14.50857 121.01278 82 ft 0 kts 330°
2026-04-25 13:02 14.50856 121.01278 82 ft 0 kts 330°
2026-04-25 13:25 14.50853 121.01280 82 ft 2 kts 330°
2026-04-25 13:25 14.50840 121.01288 82 ft 2 kts 330°
2026-04-25 13:26 14.50826 121.01296 82 ft 2 kts 330°
2026-04-25 13:26 14.50813 121.01303 82 ft 2 kts 330°
2026-04-25 13:26 14.50800 121.01311 82 ft 2 kts 330°
2026-04-25 13:26 14.50788 121.01318 82 ft 0 kts 330°
2026-04-25 13:27 14.50779 121.01324 82 ft 2 kts 309°
2026-04-25 13:27 14.50772 121.01338 82 ft 2 kts 280°
2026-04-25 13:27 14.50773 121.01354 82 ft 2 kts 250°
2026-04-25 13:27 14.50776 121.01360 82 ft 1 kts 236°
2026-04-25 13:28 14.50778 121.01363 82 ft 0 kts 240°
2026-04-25 13:31 14.50768 121.01347 82 ft 1 kts 240°
2026-04-25 13:31 14.50760 121.01333 82 ft 3 kts 240°
2026-04-25 13:31 14.50733 121.01310 82 ft 6 kts 187°
2026-04-25 13:31 14.50695 121.01325 82 ft 3 kts 156°
2026-04-25 13:32 14.50667 121.01312 82 ft 5 kts 227°
2026-04-25 13:32 14.50644 121.01276 82 ft 6 kts 240°
2026-04-25 13:32 14.50618 121.01229 82 ft 8 kts 240°
2026-04-25 13:32 14.50581 121.01160 82 ft 14 kts 240°
2026-04-25 13:33 14.50523 121.01056 82 ft 17 kts 240°
2026-04-25 13:33 14.50465 121.00949 82 ft 17 kts 239°
2026-04-25 13:33 14.50402 121.00841 82 ft 18 kts 240°
2026-04-25 13:33 14.50338 121.00722 82 ft 20 kts 242°
2026-04-25 13:34 14.50257 121.00576 82 ft 25 kts 240°
2026-04-25 13:34 14.50171 121.00422 82 ft 23 kts 240°
2026-04-25 13:34 14.50090 121.00277 82 ft 23 kts 240°
2026-04-25 13:34 14.50009 121.00132 82 ft 23 kts 239°
2026-04-25 13:35 14.49933 120.99994 82 ft 20 kts 241°
2026-04-25 13:35 14.49877 120.99963 82 ft 3 kts 155°
2026-04-25 13:35 14.49875 120.99965 82 ft 0 kts 149°
2026-04-25 13:35 14.49873 120.99966 82 ft 0 kts 149°
2026-04-25 13:36 14.49860 120.99974 82 ft 5 kts 149°
2026-04-25 13:36 14.49807 121.00011 82 ft 10 kts 124°
2026-04-25 13:36 14.49822 121.00081 82 ft 11 kts 56°
2026-04-25 13:36 14.49838 121.00109 82 ft 0 kts 60°
2026-04-25 13:37 14.49839 121.00111 82 ft 1 kts 60°
2026-04-25 13:38 14.49902 121.00226 82 ft 51 kts 60°
2026-04-25 13:38 14.50199 121.00761 82 ft 117 kts 60°
2026-04-25 13:38 14.50701 121.01659 188 ft 159 kts 61°
2026-04-25 13:38 14.51251 121.02637 765 ft 158 kts 61°
2026-04-25 13:39 14.51786 121.03599 1430 ft 156 kts 60°
2026-04-25 13:39 14.52330 121.04557 2043 ft 153 kts 60°
2026-04-25 13:39 14.52869 121.05538 2486 ft 162 kts 60°
2026-04-25 13:39 14.53450 121.06583 2858 ft 177 kts 60°
2026-04-25 13:40 14.54099 121.07749 3238 ft 194 kts 60°
2026-04-25 13:40 14.54810 121.09024 3580 ft 217 kts 60°
2026-04-25 13:40 14.55406 121.10513 4019 ft 236 kts 82°
2026-04-25 13:40 14.55207 121.12234 4498 ft 255 kts 111°
2026-04-25 13:41 14.54250 121.13856 5063 ft 270 kts 125°
2026-04-25 13:41 14.53083 121.15399 5857 ft 276 kts 127°
2026-04-25 13:41 14.51879 121.16940 6493 ft 278 kts 127°
2026-04-25 13:41 14.50649 121.18505 6863 ft 279 kts 128°
2026-04-25 13:42 14.49426 121.20054 6982 ft 280 kts 128°
2026-04-25 13:42 14.48185 121.21627 6990 ft 280 kts 127°
2026-04-25 13:42 14.46956 121.23183 6990 ft 280 kts 128°
2026-04-25 13:42 14.45708 121.24715 6998 ft 281 kts 134°
2026-04-25 13:43 14.44038 121.25799 7000 ft 283 kts 161°
2026-04-25 13:43 14.42092 121.25980 6997 ft 286 kts 188°
2026-04-25 13:43 14.40230 121.25198 7214 ft 296 kts 217°
2026-04-25 13:43 14.38717 121.23756 8062 ft 297 kts 226°
2026-04-25 13:44 14.37307 121.22199 8965 ft 297 kts 227°
2026-04-25 13:44 14.35910 121.20622 9785 ft 300 kts 227°
2026-04-25 13:44 14.34502 121.19031 10515 ft 304 kts 227°
2026-04-25 13:44 14.33047 121.17389 10900 ft 320 kts 227°
2026-04-25 13:45 14.31488 121.15631 11285 ft 337 kts 228°
2026-04-25 13:45 14.29894 121.13842 11921 ft 343 kts 227°
2026-04-25 13:45 14.28283 121.12038 12664 ft 344 kts 227°
2026-04-25 13:45 14.26637 121.10199 13398 ft 345 kts 228°
2026-04-25 13:46 14.25011 121.08390 14060 ft 348 kts 228°
2026-04-25 13:46 14.23349 121.06548 14592 ft 351 kts 227°
2026-04-25 13:46 14.21664 121.04699 14899 ft 353 kts 225°
2026-04-25 13:46 14.19635 121.03300 15220 ft 362 kts 201°
2026-04-25 13:47 14.17119 121.02912 15889 ft 363 kts 181°
2026-04-25 13:47 14.14604 121.02976 16487 ft 365 kts 179°
2026-04-25 13:47 14.12027 121.03046 16987 ft 369 kts 180°
2026-04-25 13:47 14.09443 121.03068 17498 ft 373 kts 181°
2026-04-25 13:48 14.06804 121.03055 18027 ft 375 kts 182°
2026-04-25 13:48 14.04190 121.03029 18529 ft 378 kts 182°
2026-04-25 13:48 14.01522 121.03019 19023 ft 381 kts 181°
2026-04-25 13:48 13.98877 121.03034 19503 ft 384 kts 181°
2026-04-25 13:49 13.96170 121.03049 19985 ft 386 kts 181°
2026-04-25 13:49 13.93468 121.03062 20465 ft 388 kts 181°
2026-04-25 13:49 13.90772 121.03072 20936 ft 390 kts 181°
2026-04-25 13:49 13.88055 121.03079 21389 ft 392 kts 181°
2026-04-25 13:50 13.85290 121.03087 21845 ft 395 kts 182°
2026-04-25 13:50 13.82533 121.03095 22282 ft 397 kts 182°
2026-04-25 13:50 13.79755 121.03099 22710 ft 399 kts 182°
2026-04-25 13:50 13.76966 121.03105 23126 ft 401 kts 181°
2026-04-25 13:51 13.74142 121.03111 23533 ft 404 kts 182°
2026-04-25 13:51 13.71331 121.03118 23934 ft 406 kts 182°
2026-04-25 13:51 13.68508 121.03126 24336 ft 408 kts 182°
2026-04-25 13:51 13.65652 121.03133 24737 ft 410 kts 182°
2026-04-25 13:52 13.62768 121.03141 25119 ft 412 kts 182°
2026-04-25 13:52 13.59870 121.03148 25486 ft 414 kts 182°
2026-04-25 13:52 13.56934 121.03154 25845 ft 417 kts 182°
2026-04-25 13:52 13.54040 121.03179 26191 ft 420 kts 179°
2026-04-25 13:53 13.51112 121.03632 26521 ft 426 kts 167°
2026-04-25 13:53 13.48340 121.04681 26850 ft 431 kts 156°
2026-04-25 13:53 13.45744 121.06268 26963 ft 435 kts 148°
2026-04-25 13:53 13.43245 121.08044 26967 ft 435 kts 147°
2026-04-25 13:54 13.40763 121.09847 26977 ft 434 kts 147°
2026-04-25 13:54 13.38270 121.11636 26989 ft 434 kts 147°
2026-04-25 13:54 13.35792 121.13390 26997 ft 434 kts 148°
2026-04-25 13:54 13.33309 121.15126 27004 ft 433 kts 148°
2026-04-25 13:55 13.30800 121.16876 27007 ft 433 kts 148°
2026-04-25 13:55 13.28305 121.18619 27006 ft 433 kts 148°
2026-04-25 13:55 13.25811 121.20364 26998 ft 433 kts 148°
2026-04-25 13:55 13.23316 121.22112 26768 ft 432 kts 148°
2026-04-25 13:56 13.20854 121.23837 26524 ft 430 kts 148°
2026-04-25 13:56 13.18349 121.25592 26275 ft 428 kts 147°
2026-04-25 13:56 13.15914 121.27297 26034 ft 426 kts 147°
2026-04-25 13:56 13.13443 121.29029 25788 ft 424 kts 147°
2026-04-25 13:57 13.11006 121.30737 25536 ft 423 kts 147°
2026-04-25 13:57 13.09408 121.31857 25365 ft 422 kts 147°
2026-04-25 13:57 13.06168 121.34125 24938 ft 419 kts 147°
2026-04-25 13:57 13.03762 121.35809 24525 ft 416 kts 147°
2026-04-25 13:58 13.01376 121.37479 24079 ft 413 kts 147°
2026-04-25 13:58 12.99000 121.39140 23623 ft 410 kts 147°
2026-04-25 13:58 12.96676 121.40766 23180 ft 406 kts 147°
2026-04-25 13:58 12.94357 121.42387 22721 ft 403 kts 147°
2026-04-25 13:59 12.92032 121.44015 22259 ft 399 kts 147°
2026-04-25 13:59 12.89746 121.45614 21818 ft 396 kts 147°
2026-04-25 13:59 12.87448 121.47213 21360 ft 393 kts 147°
2026-04-25 13:59 12.85198 121.48777 20899 ft 389 kts 147°
2026-04-25 14:00 12.83713 121.49809 20572 ft 390 kts 146°
2026-04-25 14:00 12.80728 121.51889 19914 ft 387 kts 146°
2026-04-25 14:00 12.78502 121.53442 19396 ft 384 kts 146°
2026-04-25 14:00 12.76308 121.54974 18883 ft 381 kts 146°
2026-04-25 14:01 12.74136 121.56490 18361 ft 378 kts 146°
2026-04-25 14:01 12.71955 121.58012 17818 ft 377 kts 146°
2026-04-25 14:01 12.69798 121.59517 17282 ft 375 kts 146°
2026-04-25 14:01 12.67629 121.61031 16809 ft 372 kts 145°
2026-04-25 14:02 12.65530 121.62497 16587 ft 366 kts 145°
2026-04-25 14:02 12.63413 121.63975 16318 ft 366 kts 145°
2026-04-25 14:02 12.61305 121.65449 15956 ft 363 kts 146°
2026-04-25 14:02 12.60630 121.65923 15830 ft 363 kts 145°
2026-04-25 14:03 12.57159 121.68367 15425 ft 361 kts 145°
2026-04-25 14:03 12.55066 121.69835 15189 ft 362 kts 145°
2026-04-25 14:03 12.53009 121.71275 14956 ft 361 kts 145°
2026-04-25 14:03 12.50914 121.72738 14720 ft 360 kts 146°
2026-04-25 14:04 12.48844 121.74183 14476 ft 359 kts 146°
2026-04-25 14:04 12.46788 121.75618 14076 ft 357 kts 146°
2026-04-25 14:04 12.44752 121.77038 13649 ft 356 kts 146°
2026-04-25 14:04 12.42688 121.78476 13157 ft 354 kts 146°
2026-04-25 14:05 12.40662 121.79886 12665 ft 352 kts 146°
2026-04-25 14:05 12.38627 121.81297 12169 ft 351 kts 146°
2026-04-25 14:05 12.36502 121.82527 11673 ft 349 kts 154°
2026-04-25 14:05 12.34268 121.83428 11182 ft 347 kts 161°
2026-04-25 14:06 12.31932 121.84150 10683 ft 344 kts 163°
2026-04-25 14:06 12.29676 121.84810 10420 ft 337 kts 163°
2026-04-25 14:06 12.27385 121.85480 10081 ft 336 kts 163°
2026-04-25 14:06 12.25153 121.86137 9656 ft 333 kts 163°
2026-04-25 14:07 12.22933 121.86792 9232 ft 325 kts 162°
2026-04-25 14:07 12.20816 121.87420 9000 ft 307 kts 162°
2026-04-25 14:07 12.18802 121.88020 8984 ft 294 kts 161°
2026-04-25 14:07 12.16830 121.88610 8897 ft 293 kts 162°
2026-04-25 14:08 12.14872 121.89195 8762 ft 292 kts 162°
2026-04-25 14:08 12.12928 121.89774 8337 ft 292 kts 161°
2026-04-25 14:08 12.10979 121.90351 7860 ft 288 kts 161°
2026-04-25 14:08 12.09052 121.90922 7381 ft 283 kts 160°
2026-04-25 14:09 12.07165 121.91478 6906 ft 280 kts 162°
2026-04-25 14:09 12.05205 121.91605 6420 ft 290 kts 188°
2026-04-25 14:09 12.03385 121.90677 6062 ft 296 kts 220°
2026-04-25 14:09 12.02924 121.90189 6006 ft 295 kts 229°
2026-04-25 14:10 12.00947 121.87292 5984 ft 298 kts 234°
2026-04-25 14:10 11.99789 121.85543 5978 ft 299 kts 234°
2026-04-25 14:10 11.98615 121.83798 5972 ft 298 kts 234°
2026-04-25 14:10 11.97411 121.82028 5966 ft 298 kts 233°
2026-04-25 14:11 11.96231 121.80309 5961 ft 298 kts 233°
2026-04-25 14:11 11.95020 121.78551 5958 ft 299 kts 233°
2026-04-25 14:11 11.93840 121.76828 5957 ft 298 kts 235°
2026-04-25 14:11 11.93000 121.74892 5943 ft 300 kts 260°
2026-04-25 14:12 11.93065 121.72788 5944 ft 297 kts 288°
2026-04-25 14:12 11.94020 121.70970 5943 ft 290 kts 316°
2026-04-25 14:12 11.95642 121.69816 5944 ft 280 kts 344°
2026-04-25 14:12 11.97521 121.69373 5955 ft 277 kts 356°
2026-04-25 14:13 11.99457 121.69124 5956 ft 277 kts 358°
2026-04-25 14:13 12.01391 121.68910 5958 ft 277 kts 359°
2026-04-25 14:13 12.03271 121.69028 5945 ft 268 kts 21°
2026-04-25 14:13 12.04832 121.69978 5953 ft 260 kts 48°
2026-04-25 14:14 12.05978 121.71411 5960 ft 260 kts 56°
2026-04-25 14:14 12.07017 121.72937 5959 ft 259 kts 58°
2026-04-25 14:14 12.08028 121.74465 5959 ft 260 kts 58°
2026-04-25 14:14 12.09042 121.76002 5959 ft 260 kts 58°
2026-04-25 14:15 12.10050 121.77530 5960 ft 261 kts 58°
2026-04-25 14:15 12.10388 121.78043 5960 ft 261 kts 58°
2026-04-25 14:15 12.12037 121.80644 5956 ft 260 kts 67°
2026-04-25 14:15 12.12286 121.82425 5960 ft 259 kts 98°
2026-04-25 14:16 12.11640 121.84141 5964 ft 263 kts 121°
2026-04-25 14:16 12.10441 121.85572 5967 ft 266 kts 130°
2026-04-25 14:16 12.09184 121.86947 5964 ft 266 kts 129°
2026-04-25 14:16 12.07910 121.88361 5962 ft 266 kts 129°
2026-04-25 14:17 12.06678 121.89751 5961 ft 266 kts 128°
2026-04-25 14:17 12.05446 121.91153 5959 ft 266 kts 128°
2026-04-25 14:17 12.04207 121.92569 5958 ft 266 kts 129°
2026-04-25 14:17 12.02944 121.93960 5958 ft 266 kts 129°
2026-04-25 14:18 12.01659 121.95355 5957 ft 267 kts 129°
2026-04-25 14:18 12.00391 121.96732 5958 ft 267 kts 129°
2026-04-25 14:18 11.99043 121.98042 5949 ft 270 kts 143°
2026-04-25 14:18 11.97221 121.98611 5951 ft 280 kts 176°
2026-04-25 14:19 11.95280 121.98130 5954 ft 290 kts 205°
2026-04-25 14:19 11.93732 121.96777 5950 ft 296 kts 233°
2026-04-25 14:19 11.92961 121.94861 5948 ft 298 kts 262°
2026-04-25 14:19 11.92779 121.92724 5957 ft 300 kts 267°
2026-04-25 14:20 11.92658 121.90592 5957 ft 300 kts 267°
2026-04-25 14:20 11.92615 121.89902 5957 ft 300 kts 267°
2026-04-25 14:20 11.92357 121.86342 5956 ft 300 kts 266°
2026-04-25 14:20 11.92186 121.84242 5955 ft 300 kts 265°
2026-04-25 14:21 11.91999 121.82106 5957 ft 300 kts 265°
2026-04-25 14:21 11.91807 121.79974 5957 ft 300 kts 265°
2026-04-25 14:21 11.91615 121.77872 5956 ft 300 kts 265°
2026-04-25 14:21 11.91421 121.75757 5956 ft 299 kts 265°
2026-04-25 14:22 11.91225 121.73628 5955 ft 299 kts 265°
2026-04-25 14:22 11.91034 121.71520 5955 ft 299 kts 265°
2026-04-25 14:22 11.90852 121.69416 5956 ft 299 kts 265°
2026-04-25 14:22 11.90668 121.67272 5956 ft 299 kts 265°
2026-04-25 14:23 11.90489 121.65162 5957 ft 301 kts 265°
2026-04-25 14:23 11.90364 121.63034 5944 ft 293 kts 275°
2026-04-25 14:23 11.90924 121.61073 5943 ft 290 kts 304°
2026-04-25 14:23 11.92280 121.59610 5945 ft 283 kts 332°
2026-04-25 14:24 11.94098 121.58966 5950 ft 274 kts
2026-04-25 14:24 11.95936 121.59265 5953 ft 265 kts 29°
2026-04-25 14:24 11.97309 121.60455 5966 ft 259 kts 55°
2026-04-25 14:24 11.98125 121.62067 5964 ft 258 kts 76°
2026-04-25 14:25 11.98190 121.63881 5968 ft 259 kts 101°
2026-04-25 14:25 11.97427 121.65576 5927 ft 265 kts 124°
2026-04-25 14:25 11.96244 121.67030 5576 ft 265 kts 128°
2026-04-25 14:25 11.95853 121.67485 5428 ft 265 kts 128°
2026-04-25 14:26 11.93827 121.69793 4815 ft 253 kts 128°
2026-04-25 14:26 11.92679 121.71100 4509 ft 245 kts 128°
2026-04-25 14:26 11.91512 121.72351 4219 ft 243 kts 134°
2026-04-25 14:26 11.90143 121.73382 4001 ft 241 kts 144°
2026-04-25 14:27 11.88685 121.74178 3936 ft 231 kts 148°
2026-04-25 14:27 11.87279 121.74895 3878 ft 219 kts 148°
2026-04-25 14:27 11.85946 121.75570 3832 ft 207 kts 147°
2026-04-25 14:27 11.84711 121.76260 3736 ft 193 kts 134°
2026-04-25 14:28 11.84021 121.77304 3654 ft 167 kts 102°
2026-04-25 14:28 11.83987 121.78430 3488 ft 154 kts 76°
2026-04-25 14:28 11.84382 121.79396 3349 ft 143 kts 64°
2026-04-25 14:28 11.84823 121.80277 3212 ft 135 kts 64°
2026-04-25 14:29 11.85255 121.81135 3104 ft 135 kts 64°
2026-04-25 14:29 11.85681 121.81981 3002 ft 134 kts 64°
2026-04-25 14:29 11.86097 121.82806 2874 ft 122 kts 64°
2026-04-25 14:29 11.86477 121.83561 2632 ft 117 kts 64°
2026-04-25 14:30 11.86843 121.84289 2396 ft 116 kts 64°
2026-04-25 14:30 11.87585 121.85764 2011 ft 116 kts 63°
2026-04-25 14:30 11.87956 121.86498 1845 ft 117 kts 64°
2026-04-25 14:31 11.88328 121.87239 1686 ft 117 kts 64°
2026-04-25 14:31 11.88700 121.87978 1525 ft 117 kts 63°
2026-04-25 14:31 11.89078 121.88730 1356 ft 118 kts 64°
2026-04-25 14:31 11.89452 121.89475 1210 ft 119 kts 64°
2026-04-25 14:32 11.89833 121.90230 1051 ft 119 kts 64°
2026-04-25 14:32 11.90214 121.90990 883 ft 120 kts 64°
2026-04-25 14:32 11.90588 121.91749 697 ft 120 kts 64°
2026-04-25 14:32 11.90977 121.92526 553 ft 121 kts 63°
2026-04-25 14:33 11.91374 121.93282 423 ft 122 kts 62°
2026-04-25 14:33 11.91774 121.94049 270 ft 122 kts 63°
2026-04-25 14:33 11.92166 121.94817 98 ft 122 kts 64°
2026-04-25 14:33 11.92539 121.95565 32 ft 100 kts 63°
2026-04-25 14:34 11.92761 121.96007 53 ft 58 kts 63°
2026-04-25 14:34 11.92924 121.96334 63 ft 28 kts 64°
2026-04-25 14:34 11.92950 121.96455 64 ft 14 kts 133°
2026-04-25 14:34 11.92858 121.96505 63 ft 15 kts 153°
2026-04-25 14:35 11.92780 121.96501 62 ft 10 kts 231°
2026-04-25 14:35 11.92746 121.96433 61 ft 12 kts 244°
2026-04-25 14:35 11.92719 121.96378 60 ft 6 kts 232°
2026-04-25 14:35 11.92679 121.96391 60 ft 3 kts 142°
2026-04-25 14:36 11.92664 121.96401 60 ft 0 kts 152°
2026-04-25 14:36 11.92663 121.96401 60 ft 0 kts 152°